SCP
0 0 0 0 0 0 0 0 0 0 0 0 0 0 0 0 0 0 0 0 0 0 0 0 0 0 0 0 0 0 0 0 0 0 0 0 0 0 0 0 0 0 0
0 0 0 0 0 0 0 0 0 0 0 0 0 0 0 0 0 0 0 0 0 0 0 0 0 0 0 0 0 0 0 0 0 0 0 0 0 0 0 0 0 0 0
0 0 0 0 0 0 0 0 0 0 0 0 0 0 0 0 0 0 0 0 0 0 0 0 0 0 0 0 0 0 0 0 0 0 0 0 0 0 0 0 0 0 0
0 0 0 0 0 0 0 0 0 0 0 0 0 0 0 0 0 0 0 0 0 0 0 0 0 0 0 0 0 0 0 0 0 0 0 0 0 0 0 0 0 0 0
0 0 0 0 0 0 0 0 0 0 0 0 0 0 0 0 0 0 0 0 0 0 0 0 0 0 0 0 0 0 0 0 0 0 0 0 0 0 0 0 0 0 0
0 0 0 0 0 0 0 0 0 0 0 0 0 0 0 0 0 0 0 0 0 0 0 0 0 0 0 0 0 0 0 0 0 0 0 0 0 0 0 0 0 0 0
0 0 0 0 0 0 0 0 0 0 0 0 0 0 0 0 0 0 0 0 0 0 0 0 0 0 0 0 0 0 0 0 0 0 0 0 0 0 0 0 0 0 0
0 0 0 0 0 0 0 0 0 0 0 0 0 0 0 0 0 0 0 0 0 0 0 0 0 0 0 0 0 0 0 0 0 0 0 0 0 0 0 0 0 0 0
0 0 0 0 0 0 0 0 0 0 0 0 0 0 0 0 0 0 0 0 0 0 0 0 0 0 0 0 0 0 0 0 0 0 0 0 0 0 0 0 0 0 0
0 0 0 0 0 0 0 0 0 0 0 0 0 0 0 0 0 0 0 0 0 0 0 0 0 0 0 0 0 0 0 0 0 0 0 0 0 0 0 0 0 0 0
0 0 0 0 0 0 0 0 0 0 0 0 0 0 0 0 0 0 0 0 0 0 0 0 0 0 0 0 0 0 0 0 0 0 0 0 0 0 0 0 0 0 0
0 0 0 0 0 0 0 0 0 0 0 0 0 0 0 0 0 0 0 0 0 0 0 0 0 0 0 0 0 0 0 0 0 0 0 0 0 0 0 0 0 0 0
0 0 0 0 0 0 0 0 0 0 0 0 0 0 0 0 0 0 0 0 0 0 0 0 0 0 0 0 0 0 0 0 0 0 0 0 0 0 0 0 0 0 0
0 0 0 0 0 0 0 0 0 0 0 0 0 0 0 0 0 0 0 0 0 0 0 0 0 0 0 0 0 0 0 0 0 0 0 0 0 0 0 0 0 0 0
0 0 0 0 0 0 0 0 0 0 0 0 0 0 0 0 0 0 0 0 0 0 0 0 0 0 0 0 0 0 0 0 0 0 0 0 0 0 0 0 0 0 0
0 0 0 0 0 0 0 0 0 0 0 0 0 0 0 0 0 0 0 0 0 0 0 0 0 0 0 0 0 0 0 0 0 0 0 0 0 0 0 0 0 0 0
0 0 0 0 0 0 0 0 0 0 0 0 0 0 0 0 0 0 0 0 0 0 0 0 0 0 0 0 0 0 0 0 0 0 0 0 0 0 0 0 0 0 0
0 0 0 0 0 0 0 0 0 0 0 0 0 0 0 0 0 0 0 0 0 0 0 0 0 0 0 0 0 0 0 0 0 0 0 0 0 0 0 0 0 0 0
0 0 0 0 0 0 0 0 0 0 0 0 0 0 0 0 0 0 0 0 0 0 0 0 0 0 0 0 0 0 0 0 0 0 0 0 0 0 0 0 0 0 0
0 0 0 0 0 0 0 0 0 0 0 0 0 0 0 0 0 0 0 0 0 0 0 0 0 0 0 0 0 0 0 0 0 0 0 0 0 0 0 0 0 0 0
0 0 0 0 0 0 0 0 0 0 0 0 0 0 0 0 0 0 0 0 0 0 0 0 0 0 0 0 0 0 0 0 0 0 0 0 0 0 0 0 0 0 0
0 0 0 0 0 0 0 0 0 0 0 0 0 0 0 0 0 0 0 0 0 0 0 0 0 0 0 0 0 0 0 0 0 0 0 0 0 0 0 0 0 0 0
0 0 0 0 0 0 0 0 0 0 0 0 0 0 0 0 0 0 0 0 0 0 0 0 0 0 0 0 0 0 0 0 0 0 0 0 0 0 0 0 0 0 0
0 0 0 0 0 0 0 0 0 0 0 0 0 0 0 0 0 0 0 0 0 0 0 0 0 0 0 0 0 0 0 0 0 0 0 0 0 0 0 0 0 0 0
0 0 0 0 0 0 0 0 0 0 0 0 0 0 0 0 0 0 0 0 0 0 0 0 0 0 0 0 0 0 0 0 0 0 0 0 0 0 0 0 0 0 0
0 0 0 0 0 0 0 0 0 0 0 0 0 0 0 0 0 0 0 0 0 0 0 0 0 0 0 0 0 0 0 0 0 0 0 0 0 0 0 0 0 0 0
Wind_Speed
2 3 7 8 9 10 10 10 10 10 10 10 10 10 10 10 10 10 9 9 9 9 9 10 10 10 11 11 11 11 11 11 11 10 10 11 11 11 11 11 9 6 11
5 5 8 8 9 10 11 10 10 10 9 9 10 10 10 10 9 9 9 9 9 9 9 9 9 10 10 10 10 10 10 10 10 10 9 9 10 10 10 10 9 7 10
7 6 6 8 9 10 10 10 10 10 10 9 9 9 9 9 9 9 9 9 9 9 9 9 9 9 10 10 10 10 10 10 10 9 8 4 6 9 9 9 9 10 10
7 6 6 8 9 10 10 10 10 10 10 9 9 9 9 9 9 9 9 9 9 8 8 9 9 9 9 9 9 9 10 10 10 8 5 4 4 8 8 9 9 9 9
6 5 6 8 9 9 10 10 10 10 10 9 9 9 8 8 8 8 9 9 9 8 8 8 8 8 9 8 8 9 9 9 9 7 4 4 3 7 8 8 8 8 8
6 5 5 8 9 9 9 9 9 9 9 9 9 8 8 8 8 8 8 8 8 8 8 8 8 8 8 8 8 8 8 8 7 4 4 3 3 6 8 7 7 7 7
5 4 5 8 9 8 8 8 8 8 8 8 8 8 8 8 8 8 8 7 7 7 7 7 8 8 7 7 8 8 8 8 5 4 3 3 3 6 7 7 6 7 7
6 5 4 7 7 7 8 7 7 7 7 7 7 8 8 7 7 7 7 7 7 7 7 7 7 7 7 7 7 7 7 7 5 4 3 2 4 5 6 6 6 7 7
5 5 3 4 4 5 6 7 7 6 7 7 7 7 7 7 7 7 6 6 7 6 6 7 6 6 7 7 7 8 8 8 4 2 3 2 4 6 6 6 6 6 7
5 4 3 3 3 3 3 5 6 6 6 6 7 7 6 6 6 6 6 6 6 6 6 6 6 6 6 6 7 7 7 6 3 3 2 2 4 5 5 5 5 6 6
4 3 3 3 3 3 3 4 4 5 5 5 5 6 6 3 3 3 4 5 5 5 5 5 6 6 6 6 6 7 6 3 3 2 2 3 4 4 4 5 4 4 4
3 3 3 3 3 3 3 2 2 2 3 3 2 2 2 2 2 3 4 5 5 5 5 5 5 6 5 3 4 5 3 3 3 2 2 4 3 3 4 4 4 3 3
4 3 3 3 3 3 2 2 1 1 1 2 2 2 2 2 1 2 2 2 3 3 2 3 3 2 2 2 2 2 2 2 2 2 3 4 3 3 4 4 4 3 3
4 3 3 3 3 2 2 2 1 1 1 1 1 1 1 1 1 1 1 1 1 1 1 1 1 2 2 2 2 2 2 2 1 1 2 5 4 3 3 3 2 2 2
5 4 4 3 3 3 2 1 1 1 1 1 0 1 1 1 1 1 1 1 1 1 1 1 1 1 2 2 1 2 2 2 2 2 2 5 5 4 3 3 3 2 2
5 5 4 4 4 3 2 2 1 1 1 1 0 0 1 1 1 1 1 1 1 1 1 1 1 1 1 1 1 1 1 1 1 1 2 3 5 5 4 4 3 2 2
5 5 5 5 4 4 3 2 1 1 1 1 0 0 1 1 1 1 1 1 0 1 1 1 2 1 1 1 1 1 1 1 1 1 1 1 2 4 5 4 3 3 2
5 5 5 4 4 4 3 2 1 1 1 1 0 0 1 1 1 1 1 1 0 1 1 1 1 1 1 1 0 1 1 0 1 1 1 1 1 2 3 5 4 3 3
5 5 5 4 4 4 3 2 2 1 1 1 1 1 1 1 1 1 1 1 1 1 1 1 1 1 1 0 0 0 0 0 0 0 1 1 1 1 1 3 5 5 4
4 4 4 4 4 3 3 2 1 1 0 0 0 1 1 1 1 1 1 1 1 1 0 1 1 1 0 1 0 1 1 1 0 0 1 0 0 0 0 1 2 3 4
3 3 4 4 3 3 2 2 2 2 1 1 1 1 2 2 2 2 1 1 1 1 1 1 1 1 1 0 1 1 2 1 0 0 1 0 0 0 0 0 0 1 2
4 3 4 4 4 3 3 2 2 2 2 2 1 1 2 2 2 2 2 2 2 1 1 1 1 1 0 0 1 1 1 2 2 1 1 1 1 0 1 1 1 1 1
4 4 4 4 4 3 3 2 1 1 1 0 1 1 2 2 2 2 2 3 2 2 2 2 2 2 1 1 0 2 2 2 2 1 1 1 1 1 1 1 1 1 1
5 4 4 4 4 3 3 4 4 3 3 3 2 2 2 2 2 2 2 3 3 2 2 2 2 1 2 2 1 0 1 2 2 1 2 1 1 1 1 1 1 2 1
4 4 4 3 3 3 4 5 5 3 3 2 1 2 2 2 2 2 2 2 2 2 3 2 2 1 2 2 2 1 0 0 1 2 2 3 2 2 2 2 1 2 2
3 3 3 3 3 3 4 4 5 5 3 2 3 3 3 2 2 3 3 2 3 3 3 3 3 2 2 2 1 1 1 1 1 1 2 2 3 3 2 2 1 2 1
Wind_Direction
152 153 125 115 108 104 102 97 96 95 93 92 91 91 89 89 90 87 87 84 80 80 79 80 83 82 80 77 75 74 71 69 71 70 70 75 78 78 78 75 71 69 77
144 138 119 113 108 104 102 98 95 94 94 93 92 92 93 91 89 86 87 86 84 82 80 79 81 82 80 77 77 76 73 69 68 67 63 67 74 77 76 75 73 73 78
128 130 124 113 109 105 102 98 94 94 95 94 92 92 94 92 88 88 88 86 85 84 81 80 79 81 79 76 74 74 74 72 66 60 55 50 68 78 79 77 76 74 76
123 125 121 114 112 109 105 100 95 93 92 92 91 89 91 92 90 87 87 85 85 84 82 81 80 81 79 76 73 74 72 69 63 55 47 43 53 77 81 82 80 77 76
114 117 121 116 115 112 108 103 98 95 92 91 90 87 86 88 91 88 86 84 83 81 79 80 82 84 82 78 75 75 72 65 58 48 44 40 42 76 80 82 83 81 80
112 112 119 118 119 114 111 107 101 97 93 90 88 85 85 87 88 87 85 86 84 83 80 81 83 85 82 81 79 75 75 68 57 50 46 46 46 74 78 81 83 83 84
116 115 121 115 115 113 111 109 105 102 96 91 88 86 82 82 85 86 84 85 86 87 85 85 89 84 79 81 82 77 73 65 59 59 57 53 58 74 79 81 84 84 85
121 121 120 115 111 111 108 106 106 104 99 95 91 87 82 79 83 86 82 81 84 86 88 90 92 87 79 77 77 73 66 59 59 61 55 56 69 78 80 84 82 82 79
107 109 104 109 107 105 105 101 101 103 98 93 90 86 82 78 78 82 82 84 84 87 88 88 91 92 84 78 74 65 59 55 55 49 50 51 69 78 76 79 84 84 83
95 99 96 93 94 97 106 94 91 91 91 87 82 77 74 74 73 74 74 80 82 82 84 85 86 90 83 75 69 61 54 51 44 39 35 58 72 77 75 74 81 84 87
97 94 103 99 90 87 93 89 87 86 82 80 80 76 69 59 57 62 64 72 75 80 82 83 84 81 73 68 66 59 50 41 36 30 21 53 75 75 74 77 79 84 91
133 118 109 108 103 96 91 82 77 77 79 75 73 74 80 71 57 61 58 64 68 71 73 78 77 69 60 47 49 52 47 40 39 17 16 42 73 82 78 73 82 90 94
157 140 122 121 114 105 102 98 81 79 77 80 77 73 84 75 62 58 49 44 51 58 56 59 60 55 60 57 47 42 45 49 32 4 11 31 56 83 85 73 80 82 91
154 155 146 137 125 115 113 109 103 93 87 73 68 89 100 98 87 82 73 60 49 48 65 60 60 54 65 70 69 57 46 47 29 1 11 24 34 60 71 72 89 98 89
159 161 161 148 141 137 123 124 105 106 118 108 73 91 119 131 139 129 110 89 77 64 83 93 83 79 78 73 67 69 51 47 38 16 2 22 33 48 53 58 65 75 75
168 169 166 159 152 140 138 139 135 137 140 119 123 145 139 131 145 146 135 126 113 113 104 102 102 94 86 82 63 51 53 36 45 35 16 16 24 29 34 37 34 37 42
173 166 165 163 156 152 152 155 138 146 128 129 170 169 135 123 143 145 142 157 185 137 112 92 88 85 82 72 54 28 39 34 30 52 52 35 16 19 23 19 17 16 358
170 165 168 165 161 159 159 164 153 145 131 141 185 181 149 138 134 131 140 176 187 110 106 113 114 108 105 98 50 10 18 9 4 36 69 57 39 19 12 17 9 4 360
169 167 167 166 167 168 159 157 152 147 160 175 168 175 184 166 149 135 155 169 147 116 110 129 106 129 137 133 337 359 336 309 274 85 91 79 71 42 12 11 10 359 358
163 164 163 167 170 162 148 140 134 131 173 178 194 202 188 183 172 154 146 149 132 109 82 114 114 71 122 177 65 358 330 300 249 195 197 132 98 92 43 14 4 345 352
152 158 164 164 173 161 160 168 172 191 210 220 226 215 196 188 184 171 167 165 155 141 173 164 131 91 30 38 78 1 336 325 322 276 229 200 230 218 207 292 335 341 329
176 176 171 175 179 181 187 189 186 187 204 215 228 225 205 188 191 191 177 180 180 161 158 168 149 137 28 32 137 125 337 328 319 300 231 201 224 257 280 289 236 242 275
188 193 191 187 186 189 183 160 128 92 64 245 246 238 230 205 193 200 195 187 184 177 185 189 182 167 183 280 201 165 167 216 291 297 276 241 238 241 267 286 274 271 266
204 197 194 192 191 193 182 179 176 185 206 223 222 227 242 217 202 203 201 193 189 186 184 195 191 195 174 201 271 295 216 170 174 275 292 283 278 265 264 290 289 280 278
201 196 195 193 200 199 191 191 192 203 218 224 217 215 232 235 215 205 198 199 195 189 187 187 192 192 189 192 190 196 298 343 172 179 260 291 305 283 271 262 252 263 274
201 193 192 194 209 204 196 195 198 204 205 205 218 215 224 233 225 215 200 202 207 198 194 196 198 190 200 200 195 186 188 198 212 184 223 251 272 283 288 273 254 258 265